Other Public Products
Issued by NWS Charleston, SC

Home | Current Version | Previous Version | Text Only | Print | Product List | Glossary On
Versions: 1 2 3 4 5 6 7 8 9 10 11 12 13 14 15 16 17 18 19 20 21 22 23 24 25 26 27 28 29 30 31 32 33 34 35 36 37 38 39 40 41 42 43 44 45 46 47 48 49 50
991
FPUS82 KCHS 161327
OPUCHS

TEST...KCHS/KSAV Gateway Observations...TEST
National Weather Service Charleston SC
800 AM EST MON JAN 16 2017

NOTE: "fair" indicates few or no clouds below 12,000 feet with no
significant weather and/or obstructions to visibility.

SCZ050-WAZ558-NCZ071-TXZ119-213-PAZ071-DCZ001-FLZ074-172-MI076-
NYZ176-178-MAZ016-IL014-TNZ027-NJZ106-GAZ044-MD014-161400-
...Gateway Observations for Charleston International...

CITY           SKY/WX    TMP DP  RH WIND       PRES   REMARKS
Chas Airport   FOG       56  55  97 NE5       30.33S VSB 1/4
Seattle        PTCLDY    31  26  82 SE3       30.22F
Charlotte      CLOUDY    50  45  83 E7        30.37R
Dallas DFW     FOG       49  49 100 CALM      29.94R VSB 1/4
Dallas Love    FOG       52  51  97 W7        29.96R VSB 1/8
Philladelphia  CLOUDY    27  19  72 NW3       30.49R
Wash National  CLOUDY    38  28  67 CALM      30.48R
Baltimore      CLOUDY    34  26  72 NE5       30.47R WCI  30
Miami          PTCLDY    75  63  66 E13       30.20R
Detroit        CLOUDY    26  22  84 CALM      30.34F FOG
Newark         PTCLDY    28  20  71 CALM      30.46S
Laguardia      PTCLDY    32  18  56 CALM      30.46S
J F K          PTCLDY    30  20  66 N3        30.47S
Boston Logan   CLEAR     25  18  74 S5        30.43F WCI  19
Ft. Lauderdale MOCLDY    74  64  71 E20       30.19R
Chicago O`Hare FRZ RAIN  32  29  88 NE6       30.26R WCI  26
Chicago Midway LGT RAIN  34  28  79 NE8       30.25F FOG     WCI  27
Houston Bush   LGT RAIN  69  67  93 S12       29.97R
Houston Hobby  MOCLDY    68  67  96 SE9       29.97R
Nashville      CLOUDY    50  48  93 CALM      30.23R FOG
Atlanta        CLOUDY    53  50  89 E7        30.28R

$$

GAZ044-118-TXZ119-213-NCZ071-DCZ001-MDZ014-506-PAZ021-071-NJZ106-
NYZ176-178-MAZ106-OHZ011-021-055-MIZ076-KYZ091-ILZ014-INZ047-
MNZ060-161400-
...Gateway Observations for Savannah International...

CITY           SKY/WX    TMP DP  RH WIND       PRES   REMARKS
Savannah Arpt  MOCLDY    54  52  93 N3        30.31S
Atlanta        CLOUDY    53  50  89 E7        30.28R
Charlotte      CLOUDY    50  45  83 E7        30.37R
Dallas DFW     FOG       49  49 100 CALM      29.94R VSB 1/4
Houston Bush   LGT RAIN  69  67  93 S12       29.97R
Wash National  CLOUDY    38  28  67 CALM      30.48R
Wash Dulles    CLOUDY    38  27  64 SE5       30.45R WCI  34
Baltimore      CLOUDY    34  26  72 NE5       30.47R WCI  30
Philadelphia   CLOUDY    27  19  72 NW3       30.49R
Newark         PTCLDY    28  20  71 CALM      30.46S
Laguardia      PTCLDY    32  18  56 CALM      30.46S
J F K          PTCLDY    30  20  66 N3        30.47S
Boston         CLEAR     25  18  74 S5        30.43F WCI  19
Pittsburg      CLOUDY    25  23  92 CALM      30.33S
Akron          CLOUDY    30  21  69 E5        30.32S WCI  25
Cleveland      CLOUDY    30  23  75 SE5       30.35F WCI  25
Cincinnati     FOG       39  38  96 E5        30.27F VSB 1/2 WCI  36
Columbus         N/A     35  33  94 CALM      30.31S FOG
Detroit        CLOUDY    26  22  84 CALM      30.34F FOG
Chicago O`Hare FRZ RAIN  32  29  88 NE6       30.26R WCI  26
Minneapolis    CLOUDY    18  13  80 E6        30.18R WCI  10
Indianapolis   CLOUDY    37  35  92 E7        30.24S FOG     WCI  32

$$




USA.gov is the U.S. government's official web portal to all federal, state and local government web resources and services.